Location: Newark
(25.0000°N, 73.5000°E)
Time: 06:35:53
(UTC+00:00)

Transit 2A Rocket - Pass Details

Date: 05 August 2021
Orbit: 586 x 916 km, 66.7° (Epoch: 23 September)

Event Time Altitude Azimuth Distance (km) Brightness Sun altitude
Rises 18:08:03 0° 329° (NNW) 3,412 9.1 -45.4°
Reaches altitude 10° 18:10:31 10° 325° (NW) 2,512 8.2 -45.6°
Enters shadow 18:11:07 13° 323° (NW) 2,300 7.9 -45.7°
